User: anonymous   Login
Location: Unspecified
(0.0000°N, 0.0000°E)
Time: 21:03:00
(UTC+01:00)
Language:

ATLAS V CENTAUR R/B - Orbit

View from above orbital plane
View from above orbital plane
View from above satellite
View from above satellite

Ground track
Ground track

The orbit data is extracted from the following two-line orbital elements,

1 27500U 02038B   14328.47398859  .00009268  00000-0  17896-2 0   290
2 27500 017.8081 190.3468 6934128 126.4486 264.5915 02.73396279 99161
Epoch (UTC): 24 November 2014 11:22:32
Eccentricity: 0.6934128
inclination: 17.8081°
perigee height: 245 km
apogee height: 30206 km
right ascension of ascending node: 190.3468°
argument of perigee: 126.4486°
revolutions per day: 2.73396279
mean anomaly at epoch: 264.5915°
orbit number at epoch: 9916

The dashed part of the orbit path shows where the satellite is in the earth's shadow,  

DLR